User: anonymous   Login
Location: Newark
(55.5030°N, 22.7200°E)
Time: 05:22:15
(UTC+00:00)
Language:

Transit 4A - Orbit

View from above orbital plane
View from above orbital plane
View from above satellite
View from above satellite

Ground track
Ground track

The orbit data is extracted from the following two-line orbital elements,

1   116U 61015A   20157.61599510 -.00000041  00000-0  27585-4 0  9999
2   116  66.8098 237.1558 0074066  11.8754 348.4050 13.91771185990664
Epoch (UTC): 05 June 2020 14:47:01
Eccentricity: 0.0074066
inclination: 66.8098°
perigee height: 868 km
apogee height: 976 km
right ascension of ascending node: 237.1558°
argument of perigee: 11.8754°
revolutions per day: 13.91771185
mean anomaly at epoch: 348.4050°
orbit number at epoch: 99066

The dashed part of the orbit path shows where the satellite is in the earth's shadow,  

DLR